Location: Brzezie
(50.1252°N, 19.8246°E)
Time: 21:00:23
(UTC+00:00)

Daily predictions for brighter satellites

Satellite Brightness Start Highest point End
(mag) Time Altitude Azimuth Time Altitude Azimuth Time Altitude Azimuth
Alouette 2 Rocket 3.6 19:29:13 10° N 19:32:58 69° ENE 19:37:57 10° SSE
Cosmos 2221 4.2 19:30:58 10° NNE 19:34:18 21° ENE 19:37:38 10° ESE
Lacrosse 5 rocket 3.2 19:33:08 10° WNW 19:37:04 34° NNW 19:40:48 10° NE
Resurs 01 Rocket 2.6 19:34:30 10° S 19:38:45 46° W 19:43:01 10° NNW
NOSS 7 (D) 3.9 19:36:45 10° SW 19:39:33 80° NW 19:42:13 10° NE
Terra 2.8 19:36:40 10° SE 19:40:56 34° ENE 19:45:13 10° N
BREEZE-M DEB (TANK) 4.3 19:41:09 10° SSW 19:44:10 16° SSE 19:46:00 10° ESE
SAR-Lupe-2 4.2 19:40:58 10° NNE 19:44:21 38° E 19:47:44 10° S
Cosmos 2322 Rocket 3.2 19:42:51 10° SW 19:48:19 52° NW 19:53:49 10° NNE
BREEZE M DEB (TANK) 2.7 19:46:57 10° W 19:49:43 33° SSW 19:51:26 12° SE
NOSS 3-3 (A) 4.4 19:45:41 10° S 19:51:04 40° ESE 19:57:06 10° NE
NOSS 3-3 (C) 4.4 19:45:48 10° S 19:51:12 39° ESE 19:57:13 10° NE
CZ-4B DEB 4.4 19:50:17 10° SSE 19:53:36 69° ENE 19:56:58 10° N
Cosmos 1455 3.6 19:51:29 10° NNW 19:55:04 38° W 19:58:39 10° SSW
Cosmos 1758 Rocket 3.9 19:51:06 10° SSW 19:55:36 74° WNW 20:00:06 10° N
SL-24 R/B - RUBIN 2 4.5 19:51:23 10° SSW 19:57:26 68° SE 20:04:03 10° NE
USA 245 3.8 19:55:35 10° S 19:58:58 58° W 20:03:17 10° NNW
Cosmos 1328 4.0 19:56:57 10° SSW 20:00:54 76° W 20:04:54 10° N
Cosmos 1538 Rocket 4.3 20:00:55 10° S 20:06:05 51° ESE 20:11:14 10° NNE
ATLAS 2AS CENTAUR R/B 3.5 19:59:55 10° NW 20:07:30 54° NE 20:14:28 10° ESE
Cosmos 1844 4.4 20:04:39 10° NW 20:10:13 50° WSW 20:15:41 10° S
Cosmos 2181 Rocket 4.1 20:04:26 10° N 20:10:50 85° E 20:17:05 10° S
COSMOS 2428 2.9 20:05:26 10° S 20:10:53 53° ESE 20:16:25 10° NE
Cosmos 1703 4.1 20:08:04 10° SSW 20:11:51 50° WNW 20:15:40 10° N
Cosmos 2322 3.7 20:07:56 10° SSW 20:13:41 85° ESE 20:19:26 10° NNE
Cosmos 2074 Rocket 4.4 20:09:51 10° SSE 20:15:37 45° E 20:21:30 10° NNE
Cosmos 2084 3.6 20:11:22 10° NW 20:15:50 73° SW 20:19:31 15° SSE
Cosmos 1953 Rocket 3.7 20:14:32 10° SSW 20:18:51 76° W 20:23:12 10° N
Cosmos 773 Rocket 4.1 20:14:29 10° SSW 20:19:48 88° WNW 20:25:08 10° NNE
USA 215 3.4 20:15:24 10° ENE 20:21:44 49° SE 20:28:01 10° SSW
ERS-1 Rocket 3.1 20:16:49 10° S 20:21:48 74° WSW 20:26:52 10° NNW
Cosmos 2237 Rocket 3.2 20:17:54 13° SSE 20:22:00 28° ESE 20:26:46 10° NE
ATLAS CENTAUR R/B 1.3 20:18:23 10° NW 20:22:03 60° SW 20:24:46 16° SSE
Cosmos 2219 Rocket 2.1 20:17:10 10° SSW 20:22:43 70° ESE 20:28:19 10° NNE
Meteor 1-27 4.3 20:17:06 10° NNW 20:22:51 86° W 20:28:18 12° S
Cosmos 1869 3.6 20:20:05 10° N 20:24:00 54° ENE 20:27:01 16° SSE
Gblst 52 Del rocket 4.4 20:19:00 10° WNW 20:24:37 65° SSW 20:30:21 12° SE
Cosmos 1818 4.3 20:19:24 10° WSW 20:24:46 58° NW 20:30:10 10° NE
Cosmos 2360 Rocket 3.2 20:20:03 10° SW 20:25:32 50° NW 20:31:04 10° NNE
Cosmos 2333 4.3 20:19:54 10° SSW 20:25:34 83° WNW 20:31:20 10° NNE
Cosmos 1842 Rocket 3.6 20:21:35 10° N 20:25:57 70° E 20:29:24 16° SSE
SPOT 5 3.0 20:23:12 12° S 20:27:56 74° WSW 20:32:43 10° NNW
CZ-4C R/B 4.4 20:24:28 10° NW 20:30:02 29° NNE 20:36:28 10° ENE
Atlas Centaur 2 4.3 20:31:47 10° SSW 20:33:41 11° S 20:34:38 11° S
Cosmos 2333 Rocket 2.2 20:30:54 10° SSW 20:36:36 89° WNW 20:42:23 10° NNE
GEOS 3 Rocket 3.8 20:32:19 10° NE 20:37:45 86° NW 20:43:09 10° SW
BREEZE-M DEB (TANK) 4.1 20:43:57 16° SE 20:44:09 16° ESE 20:47:33 10° E
NOSS 0 Rocket 4.1 20:38:44 10° S 20:44:39 51° ESE 20:50:37 10° NE
Cosmos 1315 Rocket 3.6 20:42:24 10° NNW 20:46:21 48° W 20:49:46 13° SSW
Cosmos 2056 Rocket 4.3 20:42:42 10° NNW 20:47:55 45° ENE 20:52:07 15° SE
Meteor 2-2 Rocket 4.3 20:42:41 10° NNW 20:48:33 90° WSW 20:53:03 17° S
Cosmos 1892 2.9 20:51:28 21° SSE 20:53:44 54° E 20:57:28 10° NNE
ATLAS 5 CENTAUR R/B 3.1 20:50:22 10° WSW 20:54:27 41° NW 20:59:07 10° NE
Cosmos 2278 Rocket 2.2 20:49:02 10° NNW 20:54:44 78° WSW 20:58:50 19° SSE
USA 267 3.3 20:49:19 12° ESE 20:55:33 85° SSW 21:02:10 10° WNW
Cosmos 1943 Rocket 3.9 20:53:14 10° NNW 20:57:58 26° NE 21:02:39 10° E
Cosmos 1606 4.5 20:57:08 10° NNE 21:00:15 22° ENE 21:02:25 15° ESE
MTI 3.5 20:57:27 10° NNE 21:00:33 82° E 21:02:17 24° S
Cosmos 1680 Rocket 3.7 20:59:29 17° S 21:03:25 54° ESE 21:08:36 10° NNE
Cosmos 1408 3.0 21:03:38 26° SSE 21:05:14 44° E 21:08:39 10° NNE
SL-16 R/B 3.5 21:04:45 18° SE 21:07:06 24° ESE 21:11:33 10° NE
Cosmos 2221 3.2 21:07:56 10° NNW 21:12:10 48° W 21:15:14 17° SSW
Cosmos 2184 Rocket 4.2 21:08:51 11° SSW 21:14:47 75° W 21:21:09 10° N
Lacrosse 5 rocket 3.0 21:13:12 10° NW 21:16:59 33° N 21:20:35 10° ENE
Terra 3.0 21:14:58 13° SSW 21:18:39 35° W 21:23:03 10° NNW
In-Cosmos 22 Rocket 4.1 21:14:18 15° SSW 21:18:42 83° WNW 21:24:04 10° N
CREW DRAGON DEMO-1 DEB 4.1 21:21:24 25° ESE 21:21:24 25° ESE 21:23:07 10° E
Cosmos 923 Rocket 4.0 21:16:24 12° SSW 21:21:18 88° WNW 21:26:39 10° NNE
Cosmos 2058 3.3 21:27:38 18° SSW 21:30:35 61° WNW 21:34:42 10° N
NOSS 3-4 (A) 3.9 21:23:55 10° NW 21:30:48 69° SW 21:36:03 21° SSE
NOSS 3-4 (C) 3.9 21:24:02 10° NW 21:30:55 69° SW 21:36:11 21° SSE
Okean 3 Rocket 4.2 21:30:13 26° SSE 21:32:14 43° E 21:36:26 10° NNE
Cosmos 1624 Rocket 4.0 21:32:59 10° NNW 21:38:15 78° WSW 21:41:12 26° SSE
Cosmos 1825 2.1 21:39:57 32° S 21:41:36 80° E 21:45:25 10° NNE
Cosmos 1340 4.0 21:40:48 23° ESE 21:41:49 26° E 21:45:00 10° NE
EO 1 Delta rocket 4.2 21:39:34 10° N 21:44:39 85° E 21:48:46 22° S
Cosmos 2369 Rocket 3.4 21:41:14 10° NNW 21:46:23 36° NE 21:51:30 10° ESE
Cosmos 1980 3.9 21:41:58 10° SW 21:47:37 72° WNW 21:53:18 10° NNE
Aureole 2 Rocket 1.8 21:45:26 10° NNW 21:48:16 85° WSW 21:48:50 55° SSE
Cosmos 1076 Rocket 4.4 21:47:32 16° SW 21:50:40 44° WNW 21:54:47 10° N
COSMOS 2455 3.3 21:47:45 10° NNW 21:53:46 61° NE 21:58:41 15° SE
Cosmos 2154 Rocket 4.4 21:49:47 15° SSW 21:54:54 59° WNW 22:01:04 10° N
COSMOS 2428 4.3 21:50:17 10° WSW 21:55:25 34° NW 22:00:37 10° NNE
Cosmos 2151 3.0 21:55:43 28° SSW 21:57:54 81° W 22:02:12 10° N
Thor Agena Rocket 3.6 21:52:56 10° NNE 21:58:04 75° WNW 22:01:29 21° SSW
Cosmos 1933 3.4 21:54:04 10° N 21:58:06 67° ENE 21:59:44 33° SSE
ATLAS 2AS CENTAUR R/B 3.1 21:51:17 10° NW 21:58:35 53° WSW 22:02:39 24° S
Cosmos 2341 Rocket 4.0 21:55:15 23° S 21:59:21 90° SE 22:05:37 10° N
Helios 1A 3.8 21:57:31 23° SE 21:59:38 42° ENE 22:03:34 10° N
DELTA 2 R/B (1) 4.4 21:56:25 10° SW 22:01:06 28° S 22:01:16 28° S
BREEZE-M DEB (TANK) 1.9 22:00:16 10° W 22:03:23 41° SW 22:03:23 41° SW
SL-4 R/B 2.0 22:04:30 29° NE 22:04:30 29° NE 22:06:04 10° N
Genesis I 3.5 22:00:58 14° SW 22:04:11 68° NW 22:08:05 10° NE
USA 215 3.5 21:58:26 10° ENE 22:04:59 74° NNW 22:11:31 10° WSW
Cosmos 2237 Rocket 2.7 22:00:06 10° SW 22:05:43 59° NW 22:11:23 10° NNE
Cosmos 2219 Rocket 4.2 22:02:28 10° W 22:07:12 27° NW 22:11:59 10° NNE
Cosmos 2344 3.5 22:05:40 10° SW 22:13:08 85° SE 22:21:26 10° NE
Meteor 2-12 Rocket 4.5 22:09:55 26° S 22:13:29 74° E 22:19:38 10° NNE
Cosmos 1151 Rocket 3.0 22:09:34 10° NNW 22:13:56 79° W 22:15:44 34° S
SL-8 Rocket 3.9 22:11:02 25° S 22:14:50 88° E 22:21:02 10° N
Cosmos 1782 3.5 22:12:01 10° N 22:15:50 45° ENE 22:17:28 28° SE
Cosmos 1408 Rocket 3.7 22:15:03 34° SSE 22:16:50 63° E 22:21:12 10° NNE
CZ-4C R/B 3.4 22:13:07 10° NW 22:19:55 60° NE 22:27:54 10° ESE
Cosmos 332 Rocket 3.7 22:15:33 10° NNW 22:20:23 86° ENE 22:22:47 30° SSE
ALOS 2 2.8 22:18:57 32° SSW 22:20:48 60° WSW 22:25:10 10° NNW
Cosmos 1420 Rocket 4.1 22:16:06 10° NNW 22:21:20 65° WSW 22:23:55 30° S
Cosmos 1346 Rocket 3.3 22:20:27 34° SE 22:21:39 45° E 22:25:25 10° NNE
Helios 1B rocket 4.2 22:19:23 10° NE 22:22:26 20° E 22:23:47 17° ESE
Cosmos 1727 Rocket 4.0 22:19:27 10° N 22:25:44 79° E 22:29:28 26° SSE
Cosmos 1500 Rocket 4.3 22:24:24 28° SE 22:26:06 40° E 22:30:13 10° NNE
GP-B 3.4 22:26:37 10° N 22:31:01 58° W 22:33:05 29° SSW
Cosmos 1633 2.8 22:32:54 41° SSE 22:33:51 56° E 22:37:26 10° NNE
Cosmos 1606 3.8 22:32:30 10° NNW 22:36:04 35° W 22:37:25 27° SW
Cosmos 2278 Rocket 4.3 22:35:06 10° WNW 22:37:50 14° W 22:40:35 10° SW
RESURS DK-1 3.2 22:34:21 10° NNW 22:38:23 48° NE 22:41:06 19° ESE
USA 267 4.1 22:36:39 25° SSW 22:39:08 32° SW 22:44:54 10° WNW
Cosmos 2297 4.4 22:35:57 10° NW 22:41:18 42° WSW 22:43:51 27° SSW
Cosmos 1943 Rocket 2.2 22:36:39 10° NNW 22:42:21 78° WSW 22:45:30 27° SSE
Cosmos 1943 4.2 22:41:16 23° SE 22:43:38 31° ESE 22:48:35 10° NE
Cosmos 44 3.2 22:40:51 20° SW 22:43:46 69° NW 22:48:14 10° NE
Gbstr 26 Del rocket 3.0 22:44:20 41° S 22:45:03 47° SSE 22:49:08 10° ENE
Cosmos 1048 Rocket 4.2 22:42:50 30° S 22:45:16 57° ESE 22:50:26 10° NNE
Landsat 4 3.9 22:43:40 10° NNE 22:47:26 60° ESE 22:48:35 39° SSE
Cosmos 371 Rocket 4.0 22:44:58 10° NW 22:49:31 40° WSW 22:51:21 28° SSW
SL-16 R/B 2.5 22:46:34 19° SW 22:50:44 67° WNW 22:56:26 10° NNE
APEX 3.7 22:51:50 10° NW 22:53:52 28° W 22:53:52 28° W
Cosmos 1862 4.2 22:53:29 28° SE 22:54:53 37° E 22:58:36 10° NNE
Cosmos 405 3.0 22:51:47 10° NNW 22:55:18 66° W 22:56:11 45° SSW
CREW DRAGON DEMO-1 DEB 2.9 22:53:16 13° W 22:55:57 77° NNW 22:59:02 10° ENE
Lacrosse 5 rocket 1.1 22:52:32 10° WNW 22:56:34 85° NNE 22:59:14 19° ESE
Cosmos 1452 Rocket 3.9 22:51:59 10° NNW 22:57:03 49° WSW 22:59:20 29° SSW
Cosmos 1515 Rocket 4.0 22:54:15 10° NNW 22:58:28 49° W 23:00:08 31° SSW
Cosmos 1110 Rocket 4.0 22:54:34 10° NNW 22:59:53 81° ENE 23:03:08 24° SSE
Cosmos 389 Rocket 4.2 22:59:33 10° N 23:02:35 26° ENE 23:04:34 16° ESE
ISS -1.6 23:04:52 16° ESE 23:04:52 16° ESE 23:06:04 10° E
SeaSat 1 4.3 23:02:44 10° ENE 23:06:06 18° ESE 23:08:09 14° SE
Cosmos 1707 Rocket 4.4 23:04:32 10° N 23:08:52 46° ENE 23:11:31 21° SE
Meteor 2-3 Rocket 4.3 23:12:54 21° SW 23:16:29 49° WNW 23:22:02 10° N
Cosmos 1340 4.2 23:15:33 19° WSW 23:17:22 27° WNW 23:20:39 10° N
Cosmos 2228 Rocket 3.4 23:15:01 10° NNW 23:19:30 55° W 23:21:26 31° SSW
Resurs 1-4 Rocket 3.8 23:16:03 10° NE 23:20:13 23° E 23:23:48 12° SE
Cosmos 1302 Rocket 4.4 23:15:53 10° NNW 23:21:05 62° ENE 23:25:17 15° SE
Cosmos 1603 3.7 23:22:36 28° SSW 23:25:45 75° ESE 23:31:29 10° NNE
Meteor 2-6 Rocket 4.2 23:20:18 10° NNW 23:25:46 67° W 23:28:38 28° S
Meteor 1-10 Rocket 4.2 23:21:34 10° NNW 23:27:10 78° W 23:30:21 26° S
SWARM A 4.4 23:26:23 10° N 23:29:42 64° E 23:30:49 37° SSE
Cosmos 1633 Rocket 4.1 23:27:34 22° SE 23:29:51 38° E 23:33:56 10° NNE
CZ-4 R/B 3.8 23:25:16 10° NNE 23:29:58 79° WNW 23:32:25 29° SSW
Cosmos 2369 Rocket 2.5 23:25:13 10° NW 23:30:34 48° WSW 23:33:18 27° S
Cosmos 1743 Rocket 4.2 23:29:40 25° SW 23:31:44 44° WNW 23:35:56 10° N
Sich 1 3.1 23:29:53 31° S 23:31:51 68° E 23:36:10 10° NNE
SL-4 R/B 3.1 23:32:14 18° ESE 23:32:14 18° ESE 23:34:13 10° ENE
Cosmos 44 Rocket 3.4 23:32:06 31° S 23:34:11 58° ESE 23:38:52 10° NE
Cosmos 1821 Rocket 4.0 23:30:58 25° SSW 23:34:40 71° WNW 23:40:46 10° N
Cosmos 2123 Rocket 3.9 23:30:27 10° N 23:36:41 89° W 23:40:49 23° S
Lacrosse 5 3.8 23:36:20 13° SE 23:37:49 14° ESE 23:40:29 10° E
COSMOS 2455 3.7 23:34:09 10° NW 23:39:24 32° WSW 23:41:47 24° SSW
Cosmos 1656 Rocket 3.5 23:35:25 10° NNW 23:40:51 74° WSW 23:44:30 21° SSE
USA 215 4.2 23:41:20 10° ENE 23:47:37 50° N 23:53:53 10° WNW
Cosmos 1812 3.0 23:46:14 10° NNW 23:50:00 51° W 23:51:25 32° SSW
CZ-2D R/B 3.1 23:48:36 10° NNE 23:53:34 39° E 23:57:20 17° SSE
